Hourly Data Report for September 21, 2017

All times are specified in Local Standard Time (LST). Add 1 hour to adjust for Daylight Saving Time where and when it is observed.

ST. PETERS
PRINCE EDWARD ISLAND

46°27'01.000" N
62°34'33.000" W
29.70 m
8300562
71310
ZSP

Download Data

Hourly Data (September 2017)
Hourly Data Report for September 21, 2017
Temp Definition
°C
Dew Point Temp Definition
°C
Rel Hum Definition
%
Wind Dir Definition
10's deg

Wind Spd Definition
km/h
Visibility Definition
km
Stn Press Definition
kPa
Hmdx Definition


Wind Chill Definition


Weather Definition


TIME
00:00 15.2 13.6 90 35 14   101.44     LegendNANA
01:00 15.0 13.6 92 36 12   101.45     LegendNANA
02:00 15.0 13.6 91 36 12   101.45     LegendNANA
03:00 14.9 13.1 89 36 14   101.46     LegendNANA
04:00 14.5 11.7 83 2 9   101.51     LegendNANA
05:00 14.4 11.9 85 1 10   101.53     LegendNANA
06:00 14.3 12.3 88 2 11   101.57     LegendNANA
07:00 15.3 12.0 81 3 14   101.62     LegendNANA
08:00 16.3 11.5 73 3 16   101.69     LegendNANA
09:00 16.7 11.5 71 4 18   101.74     LegendNANA
10:00 16.9 9.7 63 3 18   101.82     LegendNANA
11:00 16.8 10.3 65 2 16   101.85     LegendNANA
12:00 17.1 9.1 59 2 15   101.86     LegendNANA
13:00 16.9 8.6 58 2 17   101.88     LegendNANA
14:00
15:00
16:00 15.7 8.5 62 3 12   101.92     LegendNANA
17:00 14.8 8.9 68 3 12   101.97     LegendNANA
18:00 13.2 8.4 72 3 7   101.98     LegendNANA
19:00 12.3 8.6 78 4 8   101.99     LegendNANA
20:00 12.7 9.2 80 5 8   102.00     LegendNANA
21:00 12.3 8.8 79 5 8   102.00     LegendNANA
22:00 10.2 8.0 86 12 3   102.06     LegendNANA
23:00 8.3 7.0 92 6 6   102.06     LegendNANA

Notes on Data Quality.

Legend

  • E = Estimated
  • M = Missing
  • NA = Not Available
  • ‡ = Partner data that is not subject to review by the National Climate Archives
Date modified: